Home > Weather > Saint-Étienne > Past weeks

Flag for France Past Weather in Saint-Étienne, Rhône-Alpes, France — Yesterday and Last 2 Weeks

Now
66 °F

Partly sunny.


Feels Like: 66 °F
Forecast: 61 / 78 °F
Wind: 3 mph from West

Location: St-Etienne Boutheon

Current Time: Jul 24, 2016 at 10:57:22 AM

Latest Report: Jul 24, 2016 at 10:30 AM


Visibility: N/A

Pressure: 30.18 "Hg (28.37 "Hg at 529m altitude)

Humidity: 78%

Dew Point: 59 °F

Location of Saint-ÉtienneLocation

Past Weather in Saint-Étienne — Graph

°F

Saint-Étienne Temperature Yesterday

Maximum temperature yesterday: 73 °F (at 4:00 PM)
Minimum temperature yesterday: 63 °F (at 4:00 AM)
Average temperature yesterday: 67 °F

High & Low Weather Summary for the Past Weeks

 TemperatureHumidityPressure
High97 °F (Jul 20, 2:30 PM)100% (Jul 24, 6:30 AM)30.33 "Hg (Jul 24, 6:30 AM)
Low45 °F (Jul 16, 5:30 AM)20% (Jul 10, 6:30 PM)29.92 "Hg (Jul 10, 4:30 PM)
Average69 °F65%30.11 "Hg
* Reported Jul 9 9:00 AM — Jul 24 9:30 AM, Saint-Étienne, Weather by CustomWeather, © 2016

Note: Actual official high and low records may vary slightly from our data, if they occured in-between our weather recording intervals... More about our weather records

Advertising

Saint-Étienne Weather History for the Previous 24 Hours

Scroll right to see more
 ConditionsComfort  
Time TempWeatherWind HumidityBarometerVisibility
9:30 AM
Sun, Jul 24
64 °FPartly sunny.2 mph83%30.15 "HgN/A
9:00 AM64 °FPartly sunny.3 mph83%30.15 "HgN/A
8:30 AM63 °FPartly sunny.1 mph88%30.15 "HgN/A
8:00 AM61 °FScattered clouds.2 mph94%30.15 "Hg4 mi
7:30 AM59 °FFog.No wind94%30.15 "Hg1 mi
7:00 AM57 °FFog.No wind100%30.15 "Hg1 mi
6:30 AM57 °FFog.2 mph100%30.15 "Hg1 mi
6:00 AM57 °FFog.1 mph94%30.15 "Hg1 mi
5:30 AM59 °FDense fog.2 mph94%30.15 "Hg1 mi
5:00 AM59 °FLight fog.2 mph94%30.15 "Hg1 mi
4:30 AM61 °FFog.1 mph94%30.15 "Hg0 mi
4:00 AM61 °FFog.No wind94%30.15 "Hg1 mi
3:30 AM61 °FLow clouds.No wind94%30.15 "Hg5 mi
3:00 AM61 °FPassing clouds.2 mph94%30.15 "Hg4 mi
2:30 AM63 °FPassing clouds.No wind94%30.15 "Hg4 mi
2:00 AM63 °FFog.No wind94%30.18 "Hg3 mi
1:30 AM63 °FFog.2 mph94%30.15 "Hg3 mi
1:00 AM64 °FClear.No wind88%30.15 "Hg10 mi
12:30 AM66 °FClear.3 mph88%30.15 "Hg10 mi
12:00 AM66 °FClear.No wind88%30.15 "Hg10 mi
11:30 PM
Sat, Jul 23
66 °FClear.1 mph88%30.15 "Hg10 mi
11:00 PM66 °FClear.5 mph88%30.15 "Hg10 mi
10:30 PM66 °FClear.2 mph88%30.15 "Hg10 mi
10:00 PM66 °FOvercast.2 mph88%30.15 "HgN/A
9:30 PM68 °FLight rain. Clear.2 mph83%30.15 "HgN/A
9:00 PM70 °FLight rain. Clear.2 mph73%30.15 "HgN/A
8:30 PM70 °FSunny.1 mph73%30.12 "Hg10 mi
8:00 PM72 °FPassing clouds.3 mph65%30.12 "HgN/A
7:30 PM72 °FSunny.9 mph65%30.12 "Hg10 mi
7:00 PM72 °FSunny.9 mph65%30.12 "Hg10 mi
6:30 PM72 °FMild.8 mph65%30.12 "HgN/A
6:00 PM72 °FScattered clouds.14 mph69%30.12 "HgN/A
5:30 PM73 °FScattered clouds.16 mph65%30.12 "HgN/A
5:00 PM73 °FScattered clouds.14 mph61%30.12 "HgN/A
4:30 PM73 °FBroken clouds.10 mph61%30.12 "HgN/A
4:00 PM73 °FPartly sunny.9 mph65%30.12 "HgN/A
3:30 PM72 °FBroken clouds.8 mph69%30.12 "HgN/A
3:00 PM72 °FBroken clouds.9 mph69%30.12 "HgN/A
2:30 PM72 °FPartly sunny.7 mph69%30.12 "HgN/A
2:00 PM70 °FPartly sunny.8 mph73%30.12 "HgN/A
1:30 PM70 °FBroken clouds.9 mph69%30.12 "HgN/A
1:00 PM70 °FBroken clouds.8 mph73%30.12 "HgN/A
12:30 PM70 °FBroken clouds.7 mph73%30.12 "HgN/A
12:00 PM68 °FPartly sunny.6 mph78%30.12 "HgN/A
11:30 AM68 °FPartly sunny.6 mph78%30.12 "HgN/A
11:00 AM68 °FPartly sunny.6 mph73%30.12 "HgN/A
10:30 AM68 °FPartly sunny.7 mph78%30.09 "HgN/A
10:00 AM68 °FPartly sunny.7 mph78%30.09 "HgN/A
Weather by CustomWeather, © 2016

See weather overviewHow to use our weather pages